Location: Newark
(48.5667°N, 3.3000°E)
Time: 01:37:02
(UTC+00:00)

OTV 5 (USA 277) - Pass Details

Date: 30 October 2019
Orbit: 310 x 324 km, 54.5° (Epoch: 17 October)

Event Time Altitude Azimuth Distance (km) Brightness Sun altitude
Rises 17:31:26 0° 206° (SSW) 2,049 ? -10.5°
Reaches altitude 10° 17:33:39 10° 189° (S) 1,225 ? -10.9°
Maximum altitude 17:35:47 21° 137° (SE) 796 ? -11.2°
Enters shadow 17:36:39 18° 110° (ESE) 882 ? -11.4°
